#timestamp,LO_Frequency,Hit,StdDev 
1588906815.5,286047000.0,N
1588906835.4,286047000.8,N
1588906855.2,286046998.6,N
1588906875.1,286046999.9,N
1588906876.0,286046999.9,N
1588906895.8,286047001.3,N
1588906915.6,286047002.3,N
1588906935.5,286046999.8,N
1588906955.3,286047002.7,N
1588906975.1,286046999.4,N
1588906995.9,286046999.4,N
1588907015.7,286047000.9,N
1588907035.6,286046998.2,N
1588907055.4,286047001.9,N
1588907075.2,286047002.7,N
1588907095.1,286047000.5,N
1588907096.0,286047000.5,N
1588907115.8,286047000.0,N
1588907135.7,286047002.6,N
1588907155.5,286046998.4,N
1588907175.3,286046999.1,N
1588907195.2,286046998.9,N
1588907215.0,286046998.5,N
1588907215.9,286046998.5,N
1588907235.8,286046996.5,N
1588907255.6,286046996.7,N
1588907275.4,286046996.9,N
1588907295.3,286046997.5,N
1588907315.1,286046999.0,N
1588907335.8,286046998.6,N
1588907355.7,286046996.9,N
1588907375.5,286046998.2,N
1588907395.4,286047000.8,N
1588907415.2,286047000.9,N
1588907435.0,286047002.3,N
1588907435.9,286047002.3,N
1588907455.8,286047002.8,N
1588907475.6,286047000.0,N
1588907495.5,286047000.9,N
1588907515.3,286047003.2,N
1588907535.1,286047004.3,N
1588907555.9,286047003.3,N
1588907575.7,286047000.9,N
1588907595.6,286047002.9,N
1588907615.4,286047005.3,N
1588907635.2,286047001.4,N
1588907655.1,286047000.0,N
1588907656.0,286047000.0,N
1588907675.8,286047000.3,N
1588907695.6,286047002.3,N
1588907715.5,286047000.1,N
1588907735.3,286047001.1,N
1588907755.2,286046998.5,N
1588907775.9,286047001.1,N
1588907795.7,286047002.4,N
1588907815.6,286047000.9,N
1588907835.4,286047000.9,N
1588907855.2,286047000.7,N
1588907875.1,286046998.4,N
1588907876.0,286046998.4,N
1588907895.8,286046999.5,N
1588907915.7,286046997.7,N
1588907935.5,286046997.4,N
1588907955.3,286046998.9,N
1588907975.2,286046998.2,N
1588907995.0,286046999.6,N
1588907995.9,286046999.6,N
1588908015.8,286046999.1,N
1588908035.6,286046996.5,N
1588908055.4,286046996.6,N
1588908075.3,286046996.6,N
1588908095.1,286046997.0,N
1588908115.9,286046996.7,N
1588908135.7,286046997.3,N
1588908155.5,286046997.1,N
1588908175.4,286046996.1,N
1588908195.2,286046994.9,N
1588908215.0,286046997.3,N
1588908216.0,286046997.3,N
1588908235.8,286046995.7,N
1588908255.6,286046995.0,N
1588908275.6,286046996.1,N
1588908295.4,286046996.4,N
1588908315.3,286046993.3,Y
1588908335.1,286046997.8,P
1588908355.8,286046997.4,P
1588908375.7,286046995.0,P
1588908395.5,286046993.6,Y
1588908415.4,286046997.1,P
1588908435.2,286046999.4,P
1588908455.0,286046996.8,N
1588908455.9,286046996.8,Y
1588908475.8,286047002.1,P
1588908495.6,286046999.9,N
1588908515.5,286047000.3,N
1588908535.3,286046998.4,N
1588908555.1,286046996.5,N
1588908575.9,286046999.5,N
1588908595.7,286046995.0,N
1588908615.6,286046999.3,N
1588908635.4,286047000.7,N
1588908655.2,286047000.8,N
1588908675.1,286047000.2,N
1588908676.0,286047000.2,N
1588908695.8,286047002.3,N
1588908715.6,286047002.4,N
1588908735.5,286047001.1,N
1588908755.3,286046999.8,N
1588908775.2,286047004.0,N
1588908795.9,286047000.0,N
1588908815.7,286047002.3,N
1588908835.6,286046998.1,N
1588908855.4,286047000.9,N
1588908875.2,286046999.3,N
1588908895.1,286046997.1,N
1588908896.0,286046997.1,N
1588908915.8,286046998.1,N
1588908935.7,286047002.7,N
1588908955.5,286047001.6,N
1588908975.4,286047000.8,N
1588908995.2,286046998.8,N
1588909015.0,286046998.9,N
1588909015.9,286046998.9,N
1588909035.8,286047000.7,N
1588909055.6,286046998.5,N
1588909075.5,286047001.3,N
1588909095.3,286046999.9,N
1588909115.1,286047000.4,N
1588909135.9,286047003.9,N
1588909155.7,286047002.3,N
1588909175.6,286047000.3,N
1588909195.4,286047001.6,N
1588909215.2,286047003.1,N
1588909235.1,286047001.3,N
1588909236.0,286047001.3,N
1588909255.8,286047002.6,N
1588909275.7,286047003.4,N
1588909295.5,286047003.7,N
1588909315.3,286047006.0,Y
1588909335.2,286047002.7,P
1588909355.0,286046999.7,N
1588909355.9,286046999.7,N
1588909375.8,286047002.5,N
1588909395.6,286047001.9,N
1588909415.4,286047001.6,N
1588909435.3,286047004.3,Y
1588909455.1,286047001.8,P
1588909475.8,286047005.8,P
1588909495.7,286047005.5,N
1588909515.5,286047004.2,N
1588909535.4,286047002.6,N
1588909555.2,286047000.3,N
1588909575.0,286047000.8,N
1588909575.9,286047000.8,N
1588909595.8,286047000.9,N
1588909615.6,286047000.3,N
1588909635.5,286047001.0,N
1588909655.3,286047000.4,N
1588909675.1,286047003.4,N
1588909695.9,286047005.6,Y
1588909715.7,286046999.0,P
1588909735.6,286046998.8,N
1588909755.5,286046998.1,N
1588909775.3,286046998.2,N
1588909795.2,286047002.0,N
1588909815.0,286046998.7,N
1588909815.9,286046998.7,N
1588909835.8,286047002.4,N
1588909855.6,286047003.7,N
1588909875.4,286047001.7,N
1588909895.3,286047004.3,N
1588909915.1,286047002.6,N
1588909935.8,286047003.2,N
1588909955.7,286047001.4,N
1588909975.5,286046998.2,N
1588909995.4,286047001.0,N
1588910015.2,286047002.0,N
1588910035.0,286047003.5,N
1588910035.9,286047003.5,N
1588910055.8,286047002.5,N
1588910075.6,286046999.8,N
1588910095.5,286047004.0,N
1588910115.3,286047002.8,N
1588910135.1,286047000.6,N
1588910155.9,286047002.8,N
1588910175.7,286047002.5,N
1588910195.5,286047005.2,N
1588910215.4,286047004.5,N
1588910235.2,286047004.7,N
1588910255.1,286047003.3,N
1588910256.0,286047011.9,Y
1588910275.8,286047002.0,P
1588910295.6,286047001.4,P
1588910315.5,286047001.4,P
1588910335.3,286047004.1,Y
1588910355.2,286047000.0,P
1588910375.9,286047001.1,N
1588910395.7,286047002.6,P
